SCP
-0 0 0 0 0 0 0 0 0 0 0 0 0 0 0 0 0 0 0 0 0 0 0 0 0 0 0 0 0 0 0 0 0 0 1 1 1 0 0 0 0 0 0 0 0 0 0 0 0
-0 0 0 0 0 0 0 0 0 0 0 0 0 0 0 0 0 0 0 0 0 0 0 0 0 0 0 0 0 0 0 0 0 0 1 1 0 0 0 0 0 0 0 0 0 0 0 0 0
0 0 0 0 0 0 0 0 0 0 0 0 0 0 0 0 0 0 0 0 0 0 0 0 1 1 1 1 0 0 0 0 0 0 0 0 0 0 0 0 0 0 0 0 0 0 0 0 0
0 0 0 0 0 0 0 0 0 0 0 0 0 0 0 0 0 0 0 0 0 0 0 0 0 1 1 1 0 0 0 0 0 0 0 0 0 0 0 0 0 0 0 0 0 0 0 0 0
0 0 0 0 0 0 0 0 0 0 0 0 0 0 0 0 0 0 0 0 0 0 0 0 0 1 1 1 1 1 1 1 1 1 0 0 0 0 0 0 0 0 0 0 0 0 0 0 0
0 0 0 0 0 0 0 0 0 0 0 0 0 0 0 0 0 0 0 0 0 0 0 0 0 0 1 1 1 1 1 1 1 1 0 0 0 0 0 0 0 0 0 0 0 0 0 0 0
0 0 0 0 0 0 0 0 0 0 0 0 0 0 0 0 0 0 0 0 0 0 0 0 0 0 0 0 1 1 1 1 1 1 0 0 0 0 0 0 0 0 0 0 0 0 0 0 0
0 0 0 0 0 0 0 0 0 0 0 0 0 0 0 0 0 0 0 0 0 0 0 0 0 0 0 0 0 0 1 0 0 0 0 0 0 0 0 0 0 0 0 0 0 0 0 0 0
0 0 0 0 0 0 0 0 0 0 0 0 0 0 0 0 0 0 0 0 0 0 0 0 0 0 0 0 0 0 0 0 0 0 0 0 0 0 0 0 0 0 0 0 0 0 0 0 0
0 0 0 0 0 0 0 0 0 0 0 0 0 0 0 0 0 0 0 0 0 0 0 0 0 0 0 0 0 0 0 0 0 0 0 0 0 0 0 0 0 0 0 0 0 0 0 0 0
0 0 0 0 0 0 0 0 0 0 0 0 0 0 0 0 0 0 0 0 0 0 0 0 0 0 0 0 0 0 0 0 0 0 0 0 0 0 0 0 0 0 0 0 0 0 0 0 0
0 0 0 0 0 0 0 0 0 0 0 0 0 0 0 0 0 0 0 0 0 0 0 0 0 0 0 0 0 0 0 0 0 0 0 0 0 0 0 0 0 0 0 0 0 0 0 0 0
0 0 0 0 0 0 0 0 0 0 0 0 0 0 0 0 0 0 0 0 0 0 0 0 0 0 0 0 0 0 0 0 0 0 0 0 0 0 0 0 0 0 0 0 0 0 0 0 0
0 0 0 0 0 0 0 0 0 0 0 0 0 0 0 0 0 0 0 0 0 0 0 0 0 0 0 0 0 0 0 0 0 0 0 0 0 0 0 0 0 0 0 0 0 0 0 0 0
0 0 0 0 0 0 0 0 0 0 0 0 0 0 0 0 0 0 0 0 0 0 0 0 0 0 0 0 0 0 0 0 0 0 0 0 0 0 0 0 0 0 0 0 0 0 0 0 0
0 0 0 0 0 0 0 0 0 0 0 0 0 0 0 0 0 0 0 0 0 0 0 0 0 0 0 0 0 0 0 0 0 0 0 0 0 0 0 0 0 0 0 0 0 0 0 0 0
0 0 0 0 0 0 0 0 0 0 0 0 0 0 0 0 0 0 0 0 0 0 0 0 0 0 0 0 0 0 0 0 0 0 0 0 0 0 0 0 0 0 0 0 0 0 0 0 0
0 0 0 0 0 0 0 0 0 0 0 0 0 0 0 0 0 0 0 0 0 0 0 0 0 0 0 0 0 0 0 0 0 0 0 0 0 0 0 0 0 0 0 0 0 0 0 0 0
0 0 0 0 0 0 0 0 0 0 0 0 0 0 0 0 0 0 0 0 0 0 0 0 0 0 0 0 0 0 0 0 0 0 0 0 0 0 0 0 0 0 0 0 0 0 0 0 0
0 0 0 0 0 0 0 0 0 0 0 0 0 0 0 0 0 0 0 0 0 0 0 0 0 0 0 0 0 0 0 0 0 0 0 0 0 0 0 0 0 0 0 0 0 0 0 0 0
0 0 0 0 0 0 0 0 0 0 0 0 0 0 0 0 0 0 0 0 0 0 0 0 0 0 0 0 0 0 0 0 0 0 0 0 0 0 0 0 0 0 0 0 0 0 0 0 0
0 0 0 0 0 0 0 0 -0 -0 0 0 0 0 0 0 0 0 0 0 0 0 0 0 0 0 0 0 0 0 0 0 0 0 0 0 0 0 0 0 0 0 0 0 0 0 0 0 0
0 0 0 0 0 0 0 0 -0 -0 0 0 0 0 0 0 0 0 0 0 0 0 0 0 0 0 0 0 0 0 0 0 0 0 0 0 0 0 0 0 0 0 0 0 0 0 0 0 0
0 0 0 0 0 0 0 0 0 0 0 0 0 0 0 0 0 0 0 0 0 0 0 0 0 0 0 0 0 0 0 0 0 0 0 0 0 0 0 0 0 0 0 0 0 0 0 0 0
0 0 0 0 0 0 0 0 0 0 0 0 0 0 0 0 0 0 0 0 0 0 0 0 0 0 0 0 0 0 0 0 0 0 0 0 0 0 0 0 0 0 0 0 0 0 0 0 0
0 0 0 0 0 0 0 0 0 0 0 0 0 0 0 0 0 0 0 0 0 0 0 0 0 0 0 0 0 0 0 0 0 0 0 0 0 0 0 0 0 0 0 0 0 0 0 0 0
0 0 0 0 0 0 0 0 0 0 0 0 0 0 0 0 0 0 0 0 0 0 0 0 0 0 0 0 0 0 0 0 0 0 0 0 0 0 0 0 0 0 0 0 0 0 0 0 0
0 0 0 0 0 0 0 0 0 0 0 0 0 0 0 0 0 0 0 0 0 0 0 0 0 0 0 0 0 0 0 0 0 0 0 0 0 0 0 0 0 0 0 0 0 0 0 0 0
0 0 0 0 0 0 0 0 0 0 0 0 0 0 0 0 0 0 0 0 0 0 0 0 0 0 0 0 0 -0 -0 0 0 0 0 0 0 0 0 0 0 0 0 0 0 0 0 0 0
0 0 0 0 0 0 0 0 0 0 0 0 0 0 0 0 0 0 0 0 0 0 0 0 0 0 0 -0 -0 -0 -0 0 0 0 0 0 0 0 0 0 0 0 0 0 0 0 0 0 0
Wind_Speed
2 2 2 3 4 4 4 2 2 3 2 1 1 3 4 5 6 6 3 4 7 12 15 16 13 15 14 13 12 11 10 11 11 12 12 12 11 11 10 9 10 10 10 9 8 7 7 7 7
2 2 2 2 4 4 1 1 3 2 2 1 3 4 6 7 5 5 1 6 9 12 14 15 13 14 15 14 13 11 10 11 12 13 13 12 11 10 8 8 8 8 8 8 8 7 7 7 7
1 2 2 2 3 4 3 1 2 2 3 4 4 5 5 5 2 1 2 8 10 12 12 12 11 14 15 15 15 13 12 11 12 13 13 11 10 9 7 6 7 8 8 7 7 7 7 7 7
2 2 1 4 6 6 6 6 6 7 3 4 4 5 5 4 2 1 3 10 11 12 12 12 10 12 13 14 15 14 13 13 14 14 13 11 10 8 7 7 7 8 8 7 7 7 7 7 7
1 2 3 4 5 5 6 6 4 5 2 3 4 5 5 4 2 1 5 11 11 13 12 13 12 12 12 12 13 13 14 15 15 14 13 11 10 9 8 8 8 8 8 8 8 8 8 8 8
2 2 4 4 4 5 5 4 4 4 3 2 4 5 5 4 4 3 5 10 10 12 12 12 12 11 11 12 12 12 13 14 14 13 12 11 10 10 10 9 9 9 9 9 9 9 8 8 8
3 3 3 4 5 5 2 2 4 3 4 4 4 5 4 3 2 3 5 9 9 11 11 12 14 13 11 11 11 12 12 12 12 11 11 10 10 11 10 9 10 10 10 10 9 8 8 8 8
1 3 3 4 5 4 1 2 4 5 5 0 4 6 5 4 4 3 4 8 9 11 12 13 13 14 14 14 12 11 12 12 11 11 10 10 10 10 9 8 10 11 11 10 10 9 8 8 8
3 4 5 5 6 4 3 5 4 4 6 5 7 9 5 3 3 4 6 8 11 12 13 14 14 14 14 14 13 12 12 12 12 11 11 11 10 11 9 10 9 11 11 10 10 10 9 8 8
5 6 7 5 5 4 4 6 6 6 11 10 10 12 9 6 6 9 11 13 15 17 17 15 16 16 15 12 11 11 11 12 12 11 12 11 9 7 8 7 7 9 9 10 10 10 8 4 4
7 9 6 7 7 5 6 7 6 8 13 13 13 12 9 9 11 13 15 15 16 15 16 16 17 16 15 11 10 8 8 9 11 13 14 11 9 7 7 6 7 9 9 8 8 7 4 3 3
7 10 8 6 3 5 7 7 8 12 17 17 15 14 14 14 14 15 16 16 14 14 15 17 17 16 17 14 11 11 9 9 9 12 15 11 8 9 8 7 8 7 6 6 6 4 5 4 4
9 8 7 9 9 10 11 16 15 20 23 20 16 14 16 16 16 15 15 15 15 16 16 16 18 18 17 16 12 12 12 12 12 12 14 14 11 10 10 8 7 8 6 6 5 5 6 5 5
5 7 9 9 11 8 13 21 14 20 16 14 13 14 13 14 15 15 14 16 16 17 17 16 19 20 19 16 15 14 13 13 13 13 15 17 12 11 11 10 9 8 7 6 6 7 6 5 4
3 9 15 13 11 7 6 14 13 16 10 12 15 16 16 16 15 16 15 14 15 16 16 17 18 19 21 21 19 14 14 14 14 13 16 17 15 13 12 10 10 9 8 8 6 7 5 5 5
4 7 11 7 5 6 8 15 15 6 7 15 19 20 20 21 20 17 14 14 14 15 16 17 15 19 21 20 18 14 13 15 13 13 14 18 17 15 12 10 10 10 8 8 7 7 6 5 5
7 10 11 11 5 6 11 13 15 11 13 20 22 23 22 22 20 15 13 12 13 14 15 15 16 18 19 19 16 15 13 14 13 13 13 16 18 17 13 11 10 11 9 8 8 7 6 6 6
13 16 15 14 8 6 11 16 19 21 21 24 24 22 19 17 16 14 12 12 11 11 11 11 12 15 15 13 13 12 14 13 13 13 14 17 16 18 15 11 12 12 10 9 9 9 6 6 7
16 18 21 21 16 12 19 22 19 20 22 23 22 18 12 11 10 11 12 12 12 11 9 8 9 10 11 11 12 12 13 12 12 12 14 17 17 18 16 12 13 13 12 13 13 9 10 7 8
14 18 22 21 12 9 16 20 18 19 20 19 17 14 11 10 10 13 15 15 15 15 14 11 8 7 10 10 10 9 10 10 11 10 12 15 16 17 15 16 13 14 13 14 15 12 9 7 9
15 15 17 18 15 9 11 12 8 9 14 16 12 7 5 7 12 15 16 17 17 17 17 13 11 7 7 9 8 6 7 6 8 10 10 12 14 15 15 17 15 15 15 14 16 16 15 10 9
15 12 13 14 11 8 5 13 5 11 15 12 5 5 11 13 15 17 18 19 20 19 16 16 14 10 5 5 7 9 8 9 9 8 8 10 13 14 15 16 16 15 14 15 15 15 13 12 11
9 3 4 6 9 12 6 11 8 7 10 7 6 12 15 15 17 18 19 18 19 19 18 17 16 14 9 3 6 8 8 7 6 6 9 10 11 14 15 15 15 15 13 15 15 15 15 11 12
3 2 4 3 6 14 9 11 8 7 7 2 11 14 15 15 16 16 17 17 19 19 18 18 18 17 14 8 4 6 9 9 8 8 7 8 8 10 15 15 14 15 13 15 15 15 17 14 13
5 5 8 8 7 11 3 7 8 8 2 8 11 13 14 14 15 16 18 19 19 20 20 19 19 19 17 13 9 6 8 9 10 9 9 9 8 9 13 14 14 14 14 14 14 15 16 17 16
6 7 8 10 13 15 4 10 7 2 9 12 12 12 12 14 14 15 16 16 16 17 18 18 19 18 18 16 13 10 8 6 7 9 9 9 8 9 12 15 15 15 15 14 14 13 15 14 15
5 9 8 8 9 15 16 12 4 3 9 10 10 11 12 12 12 13 14 15 15 16 16 16 16 16 17 16 15 13 11 9 9 10 9 9 9 8 11 13 15 16 16 15 15 13 15 14 15
7 4 3 7 9 16 21 26 17 9 5 6 7 9 9 10 11 11 11 12 12 13 13 14 15 15 15 15 13 11 13 12 11 9 10 10 11 11 11 13 14 15 15 16 16 14 15 15 15
10 8 11 10 9 12 17 16 2 8 7 6 6 7 8 9 9 9 9 9 9 10 11 12 13 14 15 15 14 13 13 13 12 10 11 11 11 11 12 13 14 15 16 16 16 17 16 18 16
15 18 17 16 16 13 14 12 7 9 6 5 5 5 5 6 7 8 8 8 9 10 11 11 12 12 13 13 12 12 12 13 13 12 12 12 12 11 12 12 13 14 15 16 17 18 17 18 19
Wind_Direction
55 13 279 251 251 248 261 248 270 289 261 271 209 238 266 275 288 323 61 160 171 166 169 169 176 174 173 170 167 164 166 167 162 153 143 134 126 118 112 107 105 101 96 91 85 81 78 75 72
25 322 254 262 270 266 248 196 231 291 335 261 216 232 251 258 264 300 153 166 175 171 173 177 172 175 175 174 173 174 179 178 169 157 146 138 131 126 119 111 106 102 98 93 89 85 81 75 68
99 340 290 255 260 289 342 72 315 306 274 244 238 233 263 267 220 261 63 162 174 175 180 176 174 180 179 178 178 180 187 187 171 157 147 141 134 128 125 121 115 112 110 106 100 96 91 83 74
208 175 211 257 262 270 278 300 312 300 260 223 262 251 234 242 257 56 138 169 175 177 182 177 184 188 188 186 186 187 189 184 168 157 152 147 141 141 145 143 135 131 128 124 119 115 105 95 85
191 207 230 253 269 272 271 297 286 277 267 206 242 270 262 182 186 180 171 177 180 178 184 183 184 190 193 194 195 194 189 178 167 162 159 154 152 158 163 159 152 146 141 137 133 125 118 110 99
152 202 242 270 275 278 276 264 258 257 258 227 234 262 273 150 196 198 184 187 188 183 185 188 183 188 186 188 190 188 181 174 171 168 166 164 166 173 175 172 165 158 153 146 137 130 124 114 103
198 211 257 274 285 282 264 212 247 269 259 238 222 251 262 183 158 172 188 191 194 191 192 195 192 191 186 185 184 181 176 174 174 175 175 170 170 177 178 178 175 169 161 151 142 135 126 116 106
218 216 224 239 255 268 221 219 250 262 289 293 220 244 262 93 91 153 180 195 200 202 203 201 201 199 197 195 192 188 182 179 177 178 173 164 167 176 173 179 182 175 164 154 146 138 129 117 106
207 226 233 228 229 247 212 235 232 243 264 239 229 247 293 89 143 178 187 202 208 212 210 208 206 206 205 203 199 198 192 186 180 179 165 166 186 185 180 188 185 176 164 157 150 140 127 117 104
208 234 239 223 225 254 244 250 274 255 263 259 247 245 243 235 232 230 221 213 211 212 209 209 210 208 208 207 204 207 205 200 196 193 183 187 189 185 185 178 191 166 157 159 152 138 131 136 122
217 238 244 234 237 256 267 264 251 257 269 268 274 285 270 245 243 242 240 235 226 219 209 209 210 209 208 206 207 206 204 204 201 197 190 184 181 178 186 180 175 167 165 164 150 150 158 148 125
232 244 249 255 226 231 255 271 260 246 261 280 289 292 285 269 257 248 248 245 238 229 217 209 207 209 209 207 205 206 203 200 197 195 190 184 183 184 185 185 180 175 173 164 161 159 149 135 122
235 259 252 252 248 253 263 261 269 266 268 278 283 276 269 268 266 258 251 252 245 237 228 216 208 209 207 207 206 205 204 201 200 195 192 191 187 187 185 184 182 181 173 171 166 161 153 144 135
264 268 275 264 253 244 249 266 264 265 277 287 281 276 274 268 265 263 251 245 241 240 236 222 213 211 207 206 207 205 203 200 200 197 196 194 191 187 185 183 184 182 178 173 169 162 156 149 144
291 286 283 260 242 241 231 265 247 261 287 286 288 291 291 281 270 262 263 259 250 242 237 228 220 214 211 210 210 207 204 200 199 198 197 196 194 189 185 184 184 181 173 165 161 158 155 149 152
258 257 270 263 218 199 205 262 279 306 293 292 294 294 290 285 280 282 283 272 261 249 238 230 219 216 215 214 213 210 207 203 202 198 196 197 195 190 186 184 184 175 170 170 166 164 163 163 165
234 256 260 279 238 193 218 264 288 299 292 290 289 286 284 287 294 306 303 286 272 259 248 237 223 219 217 216 216 214 210 207 205 201 197 196 194 190 187 186 179 173 172 174 170 171 169 167 161
264 265 269 272 276 228 247 266 281 288 286 282 281 280 282 292 307 321 322 316 304 289 273 256 236 225 219 216 219 219 217 213 211 207 203 196 193 190 188 185 177 174 174 176 176 169 169 159 147
282 283 280 278 280 283 281 284 286 284 280 276 276 280 298 314 331 349 353 353 346 339 323 296 264 234 215 208 209 214 217 215 216 215 208 202 196 191 190 184 178 179 181 182 177 165 163 160 155
262 271 276 282 290 277 284 288 285 273 268 268 276 295 319 330 0 16 14 13 7 2 353 338 308 263 226 214 210 214 219 220 219 218 217 210 203 197 194 188 183 184 183 183 182 173 172 165 183
253 259 276 287 305 278 295 284 257 265 263 268 276 297 338 12 23 23 21 18 14 10 3 357 347 314 257 228 216 207 215 225 218 218 217 215 214 207 204 197 189 189 188 188 187 185 179 175 188
266 268 274 283 291 290 328 300 255 261 277 280 307 53 57 46 37 30 24 21 17 12 9 12 11 2 329 248 221 213 213 220 222 219 217 212 216 217 215 208 200 195 195 193 191 190 191 183 183
251 305 277 270 274 281 240 265 288 236 264 277 61 65 54 46 41 35 28 23 21 17 15 17 21 22 10 321 242 233 239 244 245 227 220 214 211 218 221 216 209 202 201 198 192 190 193 194 190
237 271 259 230 262 274 261 236 288 216 231 71 64 54 47 46 44 38 33 29 26 23 22 21 23 24 16 5 313 259 256 257 254 239 227 215 210 214 220 221 216 210 206 202 197 195 196 199 200
186 251 285 275 255 273 116 233 258 244 354 47 58 56 51 46 40 35 30 28 26 24 24 24 24 23 18 13 357 321 285 270 261 253 240 227 215 212 214 215 218 217 214 207 202 201 203 203 204
197 216 241 270 277 284 239 247 253 2 64 70 70 67 56 46 40 37 31 28 25 23 22 23 24 23 19 16 7 351 325 293 276 265 255 243 233 224 217 212 217 220 219 214 208 208 209 209 210
198 221 249 252 268 277 267 256 237 120 80 69 65 59 51 45 40 35 30 27 23 21 21 20 20 19 18 15 12 5 353 329 302 285 267 259 250 239 226 217 218 220 219 216 212 216 211 210 213
243 260 197 229 246 256 265 269 262 173 132 87 67 57 48 39 35 31 27 24 20 17 16 18 19 17 14 13 11 6 3 352 332 311 287 271 261 249 235 225 221 221 219 217 216 220 215 211 214
231 223 234 247 239 250 260 263 14 140 134 112 79 57 44 33 28 25 23 21 19 16 14 15 14 13 10 8 4 4 4 359 351 335 315 297 279 261 245 234 226 222 219 217 218 221 216 213 214
257 248 242 244 243 240 253 255 112 127 129 121 102 74 49 31 22 17 14 13 12 11 10 10 9 9 4 360 359 1 1 0 357 349 336 320 300 278 257 244 235 229 224 220 220 222 221 214 214